Location: Bidart
(43.4376°N, 1.5913°W)
Time: 10:41:06
(UTC+00:00)

ARIANE 6 FM1 Upper Stage - Visible Passes

Search period start: 21 January 2026 00:00
Search period end: 31 January 2026 00:00
Orbit: 522 x 610 km, 62.0° (Epoch: 20 January)

Date Brightness Start Highest point End Pass type
(mag) Time Alt. Az. Time Alt. Az. Time Alt. Az.
21 Jan 2.8 19:10:21 10° SSW 19:13:48 60° S 19:13:48 60° S visible
22 Jan 4.7 17:34:28 10° SE 17:36:06 12° ESE 17:37:42 10° E visible
22 Jan 2.6 19:10:31 10° SW 19:14:35 73° NW 19:14:40 73° NW visible
23 Jan 4.3 17:33:15 10° SSE 17:36:04 18° ESE 17:38:52 10° ENE visible
23 Jan 3.3 19:10:48 10° WSW 19:14:46 49° NW 19:15:26 44° NNW visible
24 Jan 3.8 17:32:38 10° S 17:36:05 26° ESE 17:39:29 10° ENE visible
24 Jan 3.9 19:11:14 10° WSW 19:14:59 35° NW 19:16:07 29° N visible
25 Jan 3.2 17:32:17 10° S 17:36:07 39° ESE 17:39:53 10° NE visible
25 Jan 4.4 19:11:48 10° W 19:15:13 26° NW 19:16:42 21° N visible
26 Jan 4.8 19:12:29 10° W 19:15:30 20° NW 19:17:12 16° N visible
27 Jan 5.0 19:13:22 10° WNW 19:15:49 15° NNW 19:17:37 12° N visible
28 Jan 5.2 19:14:28 10° NW 19:16:10 12° NNW 19:17:50 10° N visible
